Overview Statistics Trail Chart Weather Telemetry Raw packets
 

This is the latest recevied weather packets stored in our database for station/object R8AHC-W3. If no packets are shown the sender has not sent any weather packets the latest 10 day(s).

<< 3 4 5 6 7 8 9 >>
Time Temp. Humidity Pressure Rain* Wind** Luminosity Snow
1777661822 2.78° C 94% 1013 hPa - 1.79 m/s, 246° - -
1777658222 2.78° C 94% 1013 hPa - 1.79 m/s, 246° - -
1777651022 3.89° C 91% 1012 hPa - 1.34 m/s, 250° - -
1777643822 5° C 92% 1012 hPa - 3.58 m/s, 343° - -
1777640221 5° C 92% 1011 hPa - 3.58 m/s, 343° - -
1777633022 5° C 95% 1010 hPa - 4.02 m/s, 317° - -
1777625822 3.89° C 97% 1010 hPa - 2.68 m/s, 329° - -
1777622222 3.89° C 97% 1010 hPa - 2.68 m/s, 329° - -
1777615022 5.56° C 93% 1011 hPa - 4.02 m/s, 19° - -
1777611422 5.56° C 93% 1011 hPa - 4.02 m/s, 19° - -
1777607822 5.56° C 93% 1011 hPa - 4.02 m/s, 19° - -
1777604222 5.56° C 93% 1011 hPa - 4.02 m/s, 19° - -
1777600622 5.56° C 93% 1012 hPa - 4.02 m/s, 19° - -
1777597022 5.56° C 93% 1013 hPa - 4.02 m/s, 19° - -
1777593423 5.56° C 93% 1013 hPa - 4.02 m/s, 19° - -
1777589822 5.56° C 93% 1014 hPa - 4.02 m/s, 19° - -
1777586222 5.56° C 93% 1014 hPa - 4.02 m/s, 19° - -
1777579022 7.22° C 91% 1015 hPa - 0.89 m/s, 111° - -
1777575422 7.22° C 91% 1016 hPa - 0.89 m/s, 111° - -
1777571822 7.22° C 91% 1016 hPa - 0.89 m/s, 111° - -
1777568222 7.22° C 91% 1017 hPa - 0.89 m/s, 111° - -
1777561022 11.67° C 44% 1017 hPa - 1.79 m/s, 175° - -
1777557422 11.67° C 44% 1017 hPa - 1.79 m/s, 175° - -
1777553822 11.67° C 44% 1018 hPa - 1.79 m/s, 175° - -
1777550222 11.67° C 44% 1018 hPa - 1.79 m/s, 175° - -

* Rain since midnight (hover to see other rain measurements)
** Current wind speed in m/s (hover to see current wind gust speed)